Find Starlink 4114

NORAD ID: 53162 Int'l Des: 2022-083 Owner: SPXS Country: US Constellation: starlink operational
LEOCIRCULAR

Live Position

Loading 3D Globe...

About Starlink 4114

Description loading...

Upcoming Passes

Passes for default location (London). Set your location on the main map for personalized predictions.

Altitude History

Loading altitude history...

Two-Line Element Set

1 53162U 22083AG 26110.04714758 -.00004320 00000-0 -25353-3 0 9990
2 53162 53.2172 338.4709 0001368 92.7526 267.3622 15.08832579207603
Epoch: Apr 20, 2026 • Age: 21 hours

Current Status

Altitude 545.2 km
Velocity 7.60 km/s
Sub-Earth Point 52.02°N, 134.46°W
Launch Date Jul 17, 2022
Age 3.7 years
Type internet

Technical Details

Classification Payload
Mass 297.00 kg
Dry Mass 275.00 kg
Total Mass 297.00 kg
Length 0.20 m
Diameter 2.80 m
Span 9.00 m
Shape Box + pan
Manufacturer SPXS
Bus Type Starlink
Phase Status In Orbit
Owner/State SPXS/US

Most Searched